,,PressureMeas_1m,,PRMeasQMR101_1,,RHStat155_1m_1,,SRMeasQMS101R_1m,,TAStat155_1m_1,,GenWind_1,,GenWind_1,
2018-10-05, 00:00:06,VALID,918.342,VALID,0.0,VALID,98.954,VALID,-0.008,VALID,20.044,VALID,74.0,VALID,0.0,
2018-10-05, 00:01:06,VALID,918.314,VALID,0.0,VALID,98.963,VALID,-0.015,VALID,20.054,VALID,76.0,VALID,0.0,
2018-10-05, 00:02:06,VALID,918.329,VALID,0.0,VALID,99.003,VALID,-0.023,VALID,20.068,VALID,73.0,VALID,0.0,
2018-10-05, 00:03:06,VALID,918.298,VALID,0.0,VALID,98.973,VALID,-0.001,VALID,20.052,VALID,77.0,VALID,0.0,
2018-10-05, 00:04:06,VALID,918.29,VALID,0.0,VALID,98.996,VALID,-0.008,VALID,20.051,VALID,81.0,VALID,0.0,
2018-10-05, 00:05:06,VALID,918.276,VALID,0.0,VALID,98.99,VALID,0.011,VALID,20.049,VALID,75.0,VALID,0.0,
2018-10-05, 00:06:06,VALID,918.242,VALID,0.0,VALID,98.999,VALID,-0.008,VALID,20.046,VALID,75.0,VALID,0.0,
2018-10-05, 00:07:06,VALID,918.25,VALID,0.0,VALID,99.019,VALID,0.009,VALID,20.077,VALID,78.0,VALID,0.0,
2018-10-05, 00:08:06,VALID,918.226,VALID,0.0,VALID,99.012,VALID,-0.004,VALID,20.078,VALID,74.0,VALID,0.0,
2018-10-05, 00:09:06,VALID,918.214,VALID,0.0,VALID,98.985,VALID,0.012,VALID,20.071,VALID,73.0,VALID,0.0,
2018-10-05, 00:10:06,VALID,918.193,VALID,0.0,VALID,99.009,VALID,-0.003,VALID,20.076,VALID,71.0,VALID,0.0,
2018-10-05, 00:11:06,VALID,918.175,VALID,0.0,VALID,98.984,VALID,-0.006,VALID,20.058,VALID,80.0,VALID,0.0,
2018-10-05, 00:12:06,VALID,918.146,VALID,0.0,VALID,98.997,VALID,0.011,VALID,20.057,VALID,80.0,VALID,0.0,
2018-10-05, 00:13:06,VALID,918.111,VALID,0.0,VALID,98.969,VALID,-0.011,VALID,20.046,VALID,78.0,VALID,0.0,
2018-10-05, 00:14:06,VALID,918.096,VALID,0.0,VALID,98.971,VALID,0.006,VALID,20.042,VALID,69.0,VALID,0.0,
2018-10-05, 00:15:06,VALID,918.081,VALID,0.0,VALID,98.968,VALID,0.01,VALID,20.045,VALID,65.0,VALID,0.0,
2018-10-05, 00:16:06,VALID,918.054,VALID,0.0,VALID,98.952,VALID,0.007,VALID,20.05,VALID,66.0,VALID,0.0,
2018-10-05, 00:17:06,VALID,918.031,VALID,0.0,VALID,98.966,VALID,-0.001,VALID,20.065,VALID,66.0,VALID,0.0,
2018-10-05, 00:18:06,VALID,918.019,VALID,0.0,VALID,98.952,VALID,0.004,VALID,20.055,VALID,64.0,VALID,0.0,
2018-10-05, 00:19:06,VALID,917.998,VALID,0.0,VALID,98.94,VALID,0.017,VALID,20.047,VALID,67.0,VALID,0.0,
2018-10-05, 00:20:06,VALID,917.994,VALID,0.0,VALID,98.937,VALID,-0.005,VALID,20.055,VALID,74.0,VALID,0.0,
2018-10-05, 00:21:06,VALID,917.969,VALID,0.0,VALID,98.957,VALID,0.008,VALID,20.055,VALID,75.0,VALID,0.0,
2018-10-05, 00:22:06,VALID,917.991,VALID,0.0,VALID,98.969,VALID,0.006,VALID,20.062,VALID,70.0,VALID,0.0,
2018-10-05, 00:23:06,VALID,917.963,VALID,0.0,VALID,98.95,VALID,-0.005,VALID,20.054,VALID,78.0,VALID,0.0,
2018-10-05, 00:24:06,VALID,917.945,VALID,0.0,VALID,98.976,VALID,-0.017,VALID,20.05,VALID,83.0,VALID,0.0,
2018-10-05, 00:25:06,VALID,917.932,VALID,0.0,VALID,98.958,VALID,-0.02,VALID,20.049,VALID,92.0,VALID,0.0,
2018-10-05, 00:26:06,VALID,917.903,VALID,0.0,VALID,98.967,VALID,-0.027,VALID,20.042,VALID,96.0,VALID,0.0,
2018-10-05, 00:27:06,VALID,917.918,VALID,0.0,VALID,98.966,VALID,-0.032,VALID,20.032,VALID,101.0,VALID,0.0,
2018-10-05, 00:28:06,VALID,917.919,VALID,0.0,VALID,98.967,VALID,-0.01,VALID,20.053,VALID,94.0,VALID,0.0,
2018-10-05, 00:29:06,VALID,917.894,VALID,0.0,VALID,98.985,VALID,-0.022,VALID,20.046,VALID,92.0,VALID,0.0,
2018-10-05, 00:30:06,VALID,917.895,VALID,0.0,VALID,98.988,VALID,-0.033,VALID,20.033,VALID,93.0,VALID,0.0,
2018-10-05, 00:31:06,VALID,917.884,VALID,0.0,VALID,98.973,VALID,-0.022,VALID,20.021,VALID,93.0,VALID,0.0,
2018-10-05, 00:32:06,VALID,917.887,VALID,0.0,VALID,98.977,VALID,-0.012,VALID,20.016,VALID,93.0,VALID,0.0,
2018-10-05, 00:33:06,VALID,917.873,VALID,0.0,VALID,98.982,VALID,-0.022,VALID,20.029,VALID,93.0,VALID,0.0,
2018-10-05, 00:34:06,VALID,917.855,VALID,0.0,VALID,99.01,VALID,-0.017,VALID,20.037,VALID,93.0,VALID,0.0,
2018-10-05, 00:35:06,VALID,917.844,VALID,0.0,VALID,98.995,VALID,-0.023,VALID,20.015,VALID,93.0,VALID,0.0,
2018-10-05, 00:36:06,VALID,917.842,VALID,0.0,VALID,98.963,VALID,-0.025,VALID,19.988,VALID,93.0,VALID,0.0,
2018-10-05, 00:37:06,VALID,917.834,VALID,0.0,VALID,98.984,VALID,-0.024,VALID,19.992,VALID,96.0,VALID,0.0,
2018-10-05, 00:38:06,VALID,917.812,VALID,0.0,VALID,98.978,VALID,-0.006,VALID,19.991,VALID,96.0,VALID,0.0,
2018-10-05, 00:39:06,VALID,917.796,VALID,0.0,VALID,98.999,VALID,-0.01,VALID,20.021,VALID,96.0,VALID,0.0,
2018-10-05, 00:40:06,VALID,917.781,VALID,0.0,VALID,99.009,VALID,-0.01,VALID,20.04,VALID,96.0,VALID,0.0,
2018-10-05, 00:41:06,VALID,917.764,VALID,0.0,VALID,99.018,VALID,-0.001,VALID,20.049,VALID,96.0,VALID,0.0,
2018-10-05, 00:42:06,VALID,917.757,VALID,0.0,VALID,99.023,VALID,-0.021,VALID,20.047,VALID,96.0,VALID,0.0,
2018-10-05, 00:43:06,VALID,917.752,VALID,0.0,VALID,99.002,VALID,-0.011,VALID,20.044,VALID,96.0,VALID,0.0,
2018-10-05, 00:44:06,VALID,917.754,VALID,0.0,VALID,99.014,VALID,-0.01,VALID,20.051,VALID,96.0,VALID,0.0,
2018-10-05, 00:45:06,VALID,917.761,VALID,0.0,VALID,99.02,VALID,-0.024,VALID,20.051,VALID,96.0,VALID,0.0,
2018-10-05, 00:46:06,VALID,917.738,VALID,0.0,VALID,99.042,VALID,-0.018,VALID,20.054,VALID,96.0,VALID,0.0,
2018-10-05, 00:47:06,VALID,917.723,VALID,0.0,VALID,99.009,VALID,-0.021,VALID,20.058,VALID,96.0,VALID,0.0,
2018-10-05, 00:48:06,VALID,917.715,VALID,0.0,VALID,99.017,VALID,0.0,VALID,20.064,VALID,96.0,VALID,0.0,
2018-10-05, 00:49:06,VALID,917.705,VALID,0.0,VALID,99.025,VALID,-0.029,VALID,20.068,VALID,96.0,VALID,0.0,
2018-10-05, 00:50:06,VALID,917.702,VALID,0.0,VALID,99.021,VALID,-0.008,VALID,20.068,VALID,96.0,VALID,0.0,
2018-10-05, 00:51:06,VALID,917.712,VALID,0.0,VALID,99.01,VALID,-0.003,VALID,20.062,VALID,96.0,VALID,0.0,
2018-10-05, 00:52:06,VALID,917.7,VALID,0.0,VALID,99.027,VALID,0.01,VALID,20.061,VALID,96.0,VALID,0.0,
2018-10-05, 00:53:06,VALID,917.715,VALID,0.0,VALID,98.992,VALID,0.002,VALID,20.048,VALID,96.0,VALID,0.0,
2018-10-05, 00:54:06,VALID,917.707,VALID,0.0,VALID,99.006,VALID,-0.028,VALID,20.045,VALID,96.0,VALID,0.0,
2018-10-05, 00:55:06,VALID,917.691,VALID,0.0,VALID,98.99,VALID,-0.029,VALID,20.042,VALID,96.0,VALID,0.0,
2018-10-05, 00:56:06,VALID,917.671,VALID,0.0,VALID,98.978,VALID,-0.012,VALID,20.028,VALID,96.0,VALID,0.0,
2018-10-05, 00:57:06,VALID,917.66,VALID,0.0,VALID,98.93,VALID,-0.016,VALID,19.978,VALID,96.0,VALID,0.0,
2018-10-05, 00:58:06,VALID,917.645,VALID,0.0,VALID,98.932,VALID,-0.016,VALID,19.947,VALID,96.0,VALID,0.0,
2018-10-05, 00:59:06,VALID,917.639,VALID,0.0,VALID,98.92,VALID,-0.014,VALID,19.917,VALID,96.0,VALID,0.0,
2018-10-05, 01:00:06,VALID,917.636,VALID,0.0,VALID,98.899,VALID,-0.009,VALID,19.907,VALID,96.0,VALID,0.0,
2018-10-05, 01:01:06,VALID,917.629,VALID,0.0,VALID,98.885,VALID,-0.012,VALID,19.904,VALID,96.0,VALID,0.0,
2018-10-05, 01:02:06,VALID,917.622,VALID,0.0,VALID,98.896,VALID,-0.021,VALID,19.896,VALID,96.0,VALID,0.0,
2018-10-05, 01:03:06,VALID,917.627,VALID,0.0,VALID,98.843,VALID,-0.022,VALID,19.878,VALID,96.0,VALID,0.0,
2018-10-05, 01:04:06,VALID,917.617,VALID,0.0,VALID,98.811,VALID,-0.023,VALID,19.855,VALID,353.0,VALID,0.0,
2018-10-05, 01:05:06,VALID,917.594,VALID,0.0,VALID,98.804,VALID,-0.027,VALID,19.851,VALID,337.0,VALID,0.0,
2018-10-05, 01:06:06,VALID,917.586,VALID,0.0,VALID,98.797,VALID,-0.022,VALID,19.844,VALID,345.0,VALID,0.0,
2018-10-05, 01:07:06,VALID,917.592,VALID,0.0,VALID,98.791,VALID,-0.008,VALID,19.852,VALID,345.0,VALID,0.0,
2018-10-05, 01:08:06,VALID,917.559,VALID,0.0,VALID,98.778,VALID,-0.005,VALID,19.848,VALID,345.0,VALID,0.0,
2018-10-05, 01:09:06,VALID,917.571,VALID,0.0,VALID,98.784,VALID,0.001,VALID,19.85,VALID,345.0,VALID,0.0,
2018-10-05, 01:10:06,VALID,917.546,VALID,0.0,VALID,98.775,VALID,-0.012,VALID,19.854,VALID,345.0,VALID,0.0,
2018-10-05, 01:11:06,VALID,917.565,VALID,0.0,VALID,98.782,VALID,-0.021,VALID,19.849,VALID,345.0,VALID,0.0,
2018-10-05, 01:12:06,VALID,917.552,VALID,0.0,VALID,98.753,VALID,-0.004,VALID,19.84,VALID,345.0,VALID,0.0,
2018-10-05, 01:13:06,VALID,917.531,VALID,0.0,VALID,98.752,VALID,0.001,VALID,19.841,VALID,345.0,VALID,0.0,
2018-10-05, 01:14:06,VALID,917.526,VALID,0.0,VALID,98.755,VALID,-0.001,VALID,19.841,VALID,345.0,VALID,0.0,
2018-10-05, 01:15:06,VALID,917.508,VALID,0.0,VALID,98.748,VALID,-0.005,VALID,19.846,VALID,345.0,VALID,0.0,
2018-10-05, 01:16:06,VALID,917.492,VALID,0.0,VALID,98.637,VALID,0.003,VALID,19.773,VALID,345.0,VALID,0.0,
2018-10-05, 01:17:06,VALID,917.478,VALID,0.0,VALID,98.589,VALID,0.001,VALID,19.72,VALID,345.0,VALID,0.0,
2018-10-05, 01:18:06,VALID,917.458,VALID,0.0,VALID,98.568,VALID,0.024,VALID,19.696,VALID,345.0,VALID,0.0,
2018-10-05, 01:19:06,VALID,917.452,VALID,0.0,VALID,98.593,VALID,0.019,VALID,19.697,VALID,346.0,VALID,0.0,
2018-10-05, 01:20:06,VALID,917.439,VALID,0.0,VALID,98.537,VALID,0.001,VALID,19.644,VALID,4.0,VALID,0.0,
2018-10-05, 01:21:06,VALID,917.434,VALID,0.0,VALID,98.658,VALID,-0.015,VALID,19.695,VALID,15.0,VALID,0.0,
2018-10-05, 01:22:06,VALID,917.417,VALID,0.0,VALID,98.742,VALID,-0.002,VALID,19.758,VALID,15.0,VALID,0.0,
2018-10-05, 01:23:06,VALID,917.395,VALID,0.0,VALID,98.743,VALID,-0.006,VALID,19.765,VALID,15.0,VALID,0.0,
2018-10-05, 01:24:06,VALID,917.387,VALID,0.0,VALID,98.743,VALID,-0.004,VALID,19.742,VALID,15.0,VALID,0.0,
2018-10-05, 01:25:06,VALID,917.373,VALID,0.0,VALID,98.688,VALID,-0.013,VALID,19.685,VALID,15.0,VALID,0.0,
2018-10-05, 01:26:06,VALID,917.375,VALID,0.0,VALID,98.709,VALID,0.003,VALID,19.654,VALID,15.0,VALID,0.0,
2018-10-05, 01:27:06,VALID,917.344,VALID,0.0,VALID,98.727,VALID,-0.008,VALID,19.653,VALID,15.0,VALID,0.0,
2018-10-05, 01:28:06,VALID,917.318,VALID,0.0,VALID,98.776,VALID,-0.01,VALID,19.666,VALID,15.0,VALID,0.0,
2018-10-05, 01:29:06,VALID,917.309,VALID,0.0,VALID,98.803,VALID,0.01,VALID,19.693,VALID,15.0,VALID,0.0,
2018-10-05, 01:30:06,VALID,917.29,VALID,0.0,VALID,98.776,VALID,0.006,VALID,19.68,VALID,34.0,VALID,0.0,
2018-10-05, 01:31:06,VALID,917.287,VALID,0.0,VALID,98.805,VALID,-0.002,VALID,19.694,VALID,50.0,VALID,0.0,
2018-10-05, 01:32:06,VALID,917.256,VALID,0.0,VALID,98.838,VALID,0.005,VALID,19.736,VALID,60.0,VALID,0.0,
2018-10-05, 01:33:06,VALID,917.236,VALID,0.0,VALID,98.918,VALID,0.004,VALID,19.801,VALID,60.0,VALID,0.0,
2018-10-05, 01:34:06,VALID,917.211,VALID,0.0,VALID,98.867,VALID,-0.011,VALID,19.789,VALID,64.0,VALID,0.0,
2018-10-05, 01:35:06,VALID,917.183,VALID,0.0,VALID,98.865,VALID,-0.006,VALID,19.804,VALID,64.0,VALID,0.0,
2018-10-05, 01:36:06,VALID,917.17,VALID,0.0,VALID,98.89,VALID,-0.002,VALID,19.826,VALID,89.0,VALID,0.0,
2018-10-05, 01:37:06,VALID,917.141,VALID,0.0,VALID,98.852,VALID,0.014,VALID,19.788,VALID,105.0,VALID,0.0,
2018-10-05, 01:38:06,VALID,917.117,VALID,0.0,VALID,98.845,VALID,-0.01,VALID,19.784,VALID,104.0,VALID,0.0,
2018-10-05, 01:39:06,VALID,917.108,VALID,0.0,VALID,98.823,VALID,-0.018,VALID,19.739,VALID,104.0,VALID,0.0,
2018-10-05, 01:40:06,VALID,917.104,VALID,0.0,VALID,98.82,VALID,-0.014,VALID,19.723,VALID,104.0,VALID,0.0,
2018-10-05, 01:41:06,VALID,917.096,VALID,0.0,VALID,98.833,VALID,-0.031,VALID,19.722,VALID,104.0,VALID,0.0,
2018-10-05, 01:42:06,VALID,917.08,VALID,0.0,VALID,98.872,VALID,-0.027,VALID,19.745,VALID,103.0,VALID,0.0,
2018-10-05, 01:43:06,VALID,917.062,VALID,0.0,VALID,98.86,VALID,-0.035,VALID,19.745,VALID,102.0,VALID,0.0,
2018-10-05, 01:44:06,VALID,917.04,VALID,0.0,VALID,98.831,VALID,-0.022,VALID,19.727,VALID,101.0,VALID,0.0,
2018-10-05, 01:45:06,VALID,917.007,VALID,0.0,VALID,98.805,VALID,-0.034,VALID,19.71,VALID,85.0,VALID,0.0,
2018-10-05, 01:46:06,VALID,916.973,VALID,0.0,VALID,98.758,VALID,-0.021,VALID,19.667,VALID,83.0,VALID,0.0,
2018-10-05, 01:47:06,VALID,916.989,VALID,0.0,VALID,98.674,VALID,-0.026,VALID,19.607,VALID,83.0,VALID,0.0,
2018-10-05, 01:48:06,VALID,916.974,VALID,0.0,VALID,98.667,VALID,-0.047,VALID,19.591,VALID,83.0,VALID,0.0,
2018-10-05, 01:49:06,VALID,916.939,VALID,0.0,VALID,98.719,VALID,-0.019,VALID,19.636,VALID,83.0,VALID,0.0,
2018-10-05, 01:50:06,VALID,916.944,VALID,0.0,VALID,98.772,VALID,-0.031,VALID,19.683,VALID,83.0,VALID,0.0,
2018-10-05, 01:51:06,VALID,916.927,VALID,0.0,VALID,98.813,VALID,-0.026,VALID,19.726,VALID,83.0,VALID,0.0,
2018-10-05, 01:52:06,VALID,916.931,VALID,0.0,VALID,98.826,VALID,-0.037,VALID,19.722,VALID,82.0,VALID,0.0,
2018-10-05, 01:53:06,VALID,916.916,VALID,0.0,VALID,98.749,VALID,-0.019,VALID,19.674,VALID,84.0,VALID,0.0,
2018-10-05, 01:54:06,VALID,916.898,VALID,0.0,VALID,98.696,VALID,-0.014,VALID,19.616,VALID,88.0,VALID,0.0,
2018-10-05, 01:55:06,VALID,916.885,VALID,0.0,VALID,98.713,VALID,-0.008,VALID,19.603,VALID,95.0,VALID,0.0,
2018-10-05, 01:56:06,VALID,916.875,VALID,0.0,VALID,98.704,VALID,0.005,VALID,19.586,VALID,99.0,VALID,0.0,
2018-10-05, 01:57:06,VALID,916.859,VALID,0.0,VALID,98.729,VALID,-0.015,VALID,19.577,VALID,99.0,VALID,0.0,
2018-10-05, 01:58:06,VALID,916.857,VALID,0.0,VALID,98.765,VALID,-0.018,VALID,19.584,VALID,99.0,VALID,0.0,
2018-10-05, 01:59:06,VALID,916.847,VALID,0.0,VALID,98.735,VALID,-0.01,VALID,19.567,VALID,97.0,VALID,0.0,
2018-10-05, 02:00:06,VALID,916.84,VALID,0.0,VALID,98.76,VALID,-0.005,VALID,19.544,VALID,98.0,VALID,0.0,
2018-10-05, 02:01:06,VALID,916.836,VALID,0.0,VALID,98.781,VALID,0.009,VALID,19.552,VALID,102.0,VALID,0.0,
2018-10-05, 02:02:06,VALID,916.819,VALID,0.0,VALID,98.812,VALID,0.008,VALID,19.575,VALID,104.0,VALID,0.0,
2018-10-05, 02:03:06,VALID,916.814,VALID,0.0,VALID,98.836,VALID,-0.01,VALID,19.572,VALID,104.0,VALID,0.0,
2018-10-05, 02:04:06,VALID,916.802,VALID,0.0,VALID,98.829,VALID,-0.009,VALID,19.546,VALID,118.0,VALID,0.0,
2018-10-05, 02:05:06,VALID,916.787,VALID,0.0,VALID,98.828,VALID,-0.029,VALID,19.549,VALID,131.0,VALID,0.0,
2018-10-05, 02:06:06,VALID,916.779,VALID,0.0,VALID,98.895,VALID,-0.023,VALID,19.579,VALID,133.0,VALID,0.0,
2018-10-05, 02:07:06,VALID,916.758,VALID,0.0,VALID,98.892,VALID,-0.005,VALID,19.591,VALID,135.0,VALID,0.0,
2018-10-05, 02:08:06,VALID,916.76,VALID,0.0,VALID,98.932,VALID,-0.015,VALID,19.612,VALID,134.0,VALID,0.0,
2018-10-05, 02:09:06,VALID,916.748,VALID,0.0,VALID,98.92,VALID,-0.023,VALID,19.631,VALID,135.0,VALID,0.0,
2018-10-05, 02:10:06,VALID,916.747,VALID,0.0,VALID,98.867,VALID,0.004,VALID,19.562,VALID,135.0,VALID,0.0,
2018-10-05, 02:11:06,VALID,916.73,VALID,0.0,VALID,98.832,VALID,-0.008,VALID,19.487,VALID,133.0,VALID,0.0,
2018-10-05, 02:12:06,VALID,916.717,VALID,0.0,VALID,98.898,VALID,-0.007,VALID,19.484,VALID,104.0,VALID,0.0,
2018-10-05, 02:13:06,VALID,916.72,VALID,0.0,VALID,98.892,VALID,-0.011,VALID,19.463,VALID,80.0,VALID,0.0,
2018-10-05, 02:14:06,VALID,916.702,VALID,0.0,VALID,98.942,VALID,-0.004,VALID,19.468,VALID,80.0,VALID,0.0,
2018-10-05, 02:15:06,VALID,916.696,VALID,0.0,VALID,98.932,VALID,-0.017,VALID,19.466,VALID,80.0,VALID,0.0,
2018-10-05, 02:16:06,VALID,916.683,VALID,0.0,VALID,98.942,VALID,0.0,VALID,19.453,VALID,78.0,VALID,0.0,
2018-10-05, 02:17:06,VALID,916.666,VALID,0.0,VALID,98.914,VALID,-0.009,VALID,19.416,VALID,73.0,VALID,0.0,
2018-10-05, 02:18:06,VALID,916.654,VALID,0.0,VALID,98.966,VALID,-0.025,VALID,19.447,VALID,73.0,VALID,0.0,
2018-10-05, 02:19:06,VALID,916.637,VALID,0.0,VALID,98.989,VALID,-0.019,VALID,19.475,VALID,73.0,VALID,0.0,
2018-10-05, 02:20:06,VALID,916.651,VALID,0.0,VALID,99.007,VALID,-0.006,VALID,19.477,VALID,73.0,VALID,0.0,
2018-10-05, 02:21:06,VALID,916.628,VALID,0.0,VALID,99.005,VALID,-0.008,VALID,19.47,VALID,73.0,VALID,0.0,
2018-10-05, 02:22:06,VALID,916.629,VALID,0.0,VALID,99.015,VALID,-0.011,VALID,19.481,VALID,73.0,VALID,0.0,
2018-10-05, 02:23:06,VALID,916.605,VALID,0.0,VALID,99.026,VALID,0.008,VALID,19.48,VALID,73.0,VALID,0.0,
2018-10-05, 02:24:06,VALID,916.612,VALID,0.0,VALID,99.025,VALID,0.012,VALID,19.51,VALID,73.0,VALID,0.0,
2018-10-05, 02:25:06,VALID,916.608,VALID,0.0,VALID,99.03,VALID,0.015,VALID,19.519,VALID,73.0,VALID,0.0,
2018-10-05, 02:26:06,VALID,916.604,VALID,0.0,VALID,99.035,VALID,0.009,VALID,19.541,VALID,73.0,VALID,0.0,
2018-10-05, 02:27:06,VALID,916.604,VALID,0.0,VALID,99.045,VALID,0.004,VALID,19.556,VALID,73.0,VALID,0.0,
2018-10-05, 02:28:06,VALID,916.575,VALID,0.0,VALID,99.022,VALID,0.017,VALID,19.52,VALID,73.0,VALID,0.0,
2018-10-05, 02:29:06,VALID,916.582,VALID,0.0,VALID,98.992,VALID,0.008,VALID,19.486,VALID,73.0,VALID,0.0,
2018-10-05, 02:30:06,VALID,916.576,VALID,0.0,VALID,98.996,VALID,-0.008,VALID,19.427,VALID,73.0,VALID,0.0,
2018-10-05, 02:31:06,VALID,916.594,VALID,0.0,VALID,98.959,VALID,0.015,VALID,19.363,VALID,76.0,VALID,0.0,
2018-10-05, 02:32:06,VALID,916.571,VALID,0.0,VALID,98.913,VALID,0.02,VALID,19.264,VALID,81.0,VALID,0.0,
2018-10-05, 02:33:06,VALID,916.587,VALID,0.0,VALID,98.816,VALID,0.006,VALID,19.137,VALID,103.0,VALID,0.0,
2018-10-05, 02:34:06,VALID,916.606,VALID,0.0,VALID,98.755,VALID,0.004,VALID,19.027,VALID,96.0,VALID,0.0,
2018-10-05, 02:35:06,VALID,916.572,VALID,0.0,VALID,98.804,VALID,0.002,VALID,19.007,VALID,95.0,VALID,0.0,
2018-10-05, 02:36:06,VALID,916.597,VALID,0.0,VALID,98.836,VALID,0.014,VALID,19.012,VALID,95.0,VALID,0.0,
2018-10-05, 02:37:06,VALID,916.568,VALID,0.0,VALID,98.851,VALID,0.013,VALID,19.026,VALID,96.0,VALID,0.0,
2018-10-05, 02:38:06,VALID,916.581,VALID,0.0,VALID,98.911,VALID,-0.003,VALID,19.096,VALID,105.0,VALID,0.0,
2018-10-05, 02:39:06,VALID,916.579,VALID,0.0,VALID,98.933,VALID,0.014,VALID,19.138,VALID,106.0,VALID,0.0,
2018-10-05, 02:40:06,VALID,916.599,VALID,0.0,VALID,98.911,VALID,0.009,VALID,19.121,VALID,106.0,VALID,0.0,
2018-10-05, 02:41:06,VALID,916.581,VALID,0.0,VALID,98.938,VALID,0.007,VALID,19.14,VALID,106.0,VALID,0.0,
2018-10-05, 02:42:06,VALID,916.607,VALID,0.0,VALID,98.956,VALID,0.017,VALID,19.17,VALID,108.0,VALID,0.0,
2018-10-05, 02:43:06,VALID,916.603,VALID,0.0,VALID,99.012,VALID,0.004,VALID,19.228,VALID,112.0,VALID,0.0,
2018-10-05, 02:44:06,VALID,916.595,VALID,0.0,VALID,99.005,VALID,0.016,VALID,19.263,VALID,111.0,VALID,0.0,
2018-10-05, 02:45:06,VALID,916.604,VALID,0.0,VALID,98.982,VALID,-0.002,VALID,19.263,VALID,109.0,VALID,0.0,
2018-10-05, 02:46:06,VALID,916.598,VALID,0.0,VALID,99.022,VALID,0.008,VALID,19.292,VALID,109.0,VALID,0.0,
2018-10-05, 02:47:06,VALID,916.594,VALID,0.0,VALID,99.029,VALID,0.005,VALID,19.295,VALID,110.0,VALID,0.0,
2018-10-05, 02:48:06,VALID,916.622,VALID,0.0,VALID,99.042,VALID,-0.008,VALID,19.318,VALID,111.0,VALID,0.0,
2018-10-05, 02:49:06,VALID,916.613,VALID,0.0,VALID,99.038,VALID,-0.0,VALID,19.324,VALID,107.0,VALID,0.0,
2018-10-05, 02:50:06,VALID,916.608,VALID,0.0,VALID,99.038,VALID,-0.007,VALID,19.298,VALID,95.0,VALID,0.0,
2018-10-05, 02:51:06,VALID,916.611,VALID,0.0,VALID,99.021,VALID,-0.008,VALID,19.286,VALID,95.0,VALID,0.0,
2018-10-05, 02:52:06,VALID,916.606,VALID,0.0,VALID,99.027,VALID,-0.002,VALID,19.261,VALID,98.0,VALID,0.0,
2018-10-05, 02:53:06,VALID,916.58,VALID,0.0,VALID,99.003,VALID,-0.008,VALID,19.237,VALID,102.0,VALID,0.0,
2018-10-05, 02:54:06,VALID,916.58,VALID,0.0,VALID,99.054,VALID,-0.002,VALID,19.266,VALID,103.0,VALID,0.0,
2018-10-05, 02:55:06,VALID,916.569,VALID,0.0,VALID,99.066,VALID,0.005,VALID,19.264,VALID,103.0,VALID,0.0,
2018-10-05, 02:56:06,VALID,916.57,VALID,0.0,VALID,99.034,VALID,-0.002,VALID,19.219,VALID,104.0,VALID,0.0,
2018-10-05, 02:57:06,VALID,916.589,VALID,0.0,VALID,99.062,VALID,0.001,VALID,19.25,VALID,107.0,VALID,0.0,
2018-10-05, 02:58:06,VALID,916.586,VALID,0.0,VALID,99.111,VALID,0.008,VALID,19.291,VALID,110.0,VALID,0.0,
2018-10-05, 02:59:06,VALID,916.565,VALID,0.0,VALID,99.064,VALID,0.003,VALID,19.209,VALID,110.0,VALID,0.0,
2018-10-05, 03:00:06,VALID,916.575,VALID,0.0,VALID,99.092,VALID,-0.002,VALID,19.205,VALID,107.0,VALID,0.0,
2018-10-05, 03:01:06,VALID,916.554,VALID,0.0,VALID,99.065,VALID,0.002,VALID,19.178,VALID,99.0,VALID,0.0,
2018-10-05, 03:02:06,VALID,916.541,VALID,0.0,VALID,99.057,VALID,0.01,VALID,19.154,VALID,107.0,VALID,0.0,
2018-10-05, 03:03:06,VALID,916.532,VALID,0.0,VALID,99.096,VALID,-0.01,VALID,19.181,VALID,108.0,VALID,0.0,
2018-10-05, 03:04:06,VALID,916.515,VALID,0.0,VALID,99.118,VALID,0.001,VALID,19.222,VALID,105.0,VALID,0.0,
2018-10-05, 03:05:06,VALID,916.501,VALID,0.0,VALID,99.152,VALID,0.003,VALID,19.277,VALID,103.0,VALID,0.0,
2018-10-05, 03:06:06,VALID,916.49,VALID,0.0,VALID,99.151,VALID,-0.006,VALID,19.309,VALID,100.0,VALID,0.0,
2018-10-05, 03:07:06,VALID,916.501,VALID,0.0,VALID,99.149,VALID,0.017,VALID,19.312,VALID,97.0,VALID,0.0,
2018-10-05, 03:08:06,VALID,916.482,VALID,0.0,VALID,99.12,VALID,-0.01,VALID,19.273,VALID,98.0,VALID,0.0,
2018-10-05, 03:09:06,VALID,916.489,VALID,0.0,VALID,99.108,VALID,-0.055,VALID,19.228,VALID,100.0,VALID,0.0,
2018-10-05, 03:10:06,VALID,916.492,VALID,0.0,VALID,99.103,VALID,-0.044,VALID,19.188,VALID,101.0,VALID,0.0,
2018-10-05, 03:11:06,VALID,916.52,VALID,0.0,VALID,99.114,VALID,-0.048,VALID,19.176,VALID,100.0,VALID,0.0,
2018-10-05, 03:12:06,VALID,916.51,VALID,0.0,VALID,99.115,VALID,-0.046,VALID,19.149,VALID,98.0,VALID,0.0,
2018-10-05, 03:13:06,VALID,916.507,VALID,0.0,VALID,99.123,VALID,-0.051,VALID,19.153,VALID,98.0,VALID,0.0,
2018-10-05, 03:14:06,VALID,916.514,VALID,0.0,VALID,99.143,VALID,-0.046,VALID,19.182,VALID,97.0,VALID,0.0,
2018-10-05, 03:15:06,VALID,916.513,VALID,0.0,VALID,99.136,VALID,-0.039,VALID,19.152,VALID,94.0,VALID,0.0,
2018-10-05, 03:16:06,VALID,916.52,VALID,0.0,VALID,99.159,VALID,-0.058,VALID,19.159,VALID,92.0,VALID,0.0,
2018-10-05, 03:17:06,VALID,916.537,VALID,0.0,VALID,99.193,VALID,-0.045,VALID,19.224,VALID,92.0,VALID,0.0,
2018-10-05, 03:18:06,VALID,916.544,VALID,0.0,VALID,99.194,VALID,-0.048,VALID,19.27,VALID,92.0,VALID,0.0,
2018-10-05, 03:19:06,VALID,916.564,VALID,0.0,VALID,99.163,VALID,-0.056,VALID,19.229,VALID,100.0,VALID,0.0,
2018-10-05, 03:20:06,VALID,916.57,VALID,0.0,VALID,99.128,VALID,-0.024,VALID,19.179,VALID,101.0,VALID,0.0,
2018-10-05, 03:21:06,VALID,916.571,VALID,0.0,VALID,99.155,VALID,-0.037,VALID,19.16,VALID,97.0,VALID,0.0,
2018-10-05, 03:22:06,VALID,916.568,VALID,0.0,VALID,99.13,VALID,-0.044,VALID,19.086,VALID,87.0,VALID,0.0,
2018-10-05, 03:23:06,VALID,916.564,VALID,0.0,VALID,99.076,VALID,-0.007,VALID,18.997,VALID,78.0,VALID,0.0,
2018-10-05, 03:24:06,VALID,916.57,VALID,0.0,VALID,99.089,VALID,0.01,VALID,18.957,VALID,76.0,VALID,0.0,
2018-10-05, 03:25:06,VALID,916.563,VALID,0.0,VALID,99.173,VALID,0.01,VALID,19.023,VALID,78.0,VALID,0.0,
2018-10-05, 03:26:06,VALID,916.572,VALID,0.0,VALID,99.168,VALID,0.003,VALID,19.062,VALID,84.0,VALID,0.0,
2018-10-05, 03:27:06,VALID,916.598,VALID,0.0,VALID,99.171,VALID,0.001,VALID,19.038,VALID,85.0,VALID,0.0,
2018-10-05, 03:28:06,VALID,916.594,VALID,0.0,VALID,99.161,VALID,0.006,VALID,19.036,VALID,83.0,VALID,0.0,
2018-10-05, 03:29:06,VALID,916.596,VALID,0.0,VALID,99.172,VALID,0.006,VALID,19.023,VALID,77.0,VALID,0.0,
2018-10-05, 03:30:06,VALID,916.583,VALID,0.0,VALID,99.165,VALID,-0.001,VALID,19.003,VALID,77.0,VALID,0.0,
2018-10-05, 03:31:06,VALID,916.566,VALID,0.0,VALID,99.153,VALID,0.001,VALID,18.976,VALID,73.0,VALID,0.0,
2018-10-05, 03:32:06,VALID,916.56,VALID,0.0,VALID,99.205,VALID,0.003,VALID,19.027,VALID,77.0,VALID,0.0,
2018-10-05, 03:33:06,VALID,916.547,VALID,0.0,VALID,99.222,VALID,-0.004,VALID,19.066,VALID,81.0,VALID,0.0,
2018-10-05, 03:34:06,VALID,916.529,VALID,0.0,VALID,99.228,VALID,-0.003,VALID,19.096,VALID,82.0,VALID,0.0,
2018-10-05, 03:35:06,VALID,916.535,VALID,0.0,VALID,99.221,VALID,0.025,VALID,19.095,VALID,81.0,VALID,0.0,
2018-10-05, 03:36:06,VALID,916.542,VALID,0.0,VALID,99.177,VALID,0.007,VALID,19.066,VALID,80.0,VALID,0.0,
2018-10-05, 03:37:06,VALID,916.522,VALID,0.0,VALID,99.188,VALID,-0.011,VALID,19.047,VALID,79.0,VALID,0.0,
2018-10-05, 03:38:06,VALID,916.554,VALID,0.0,VALID,99.16,VALID,-0.009,VALID,18.978,VALID,77.0,VALID,0.0,
2018-10-05, 03:39:06,VALID,916.568,VALID,0.0,VALID,99.159,VALID,-0.01,VALID,18.961,VALID,76.0,VALID,0.0,
2018-10-05, 03:40:06,VALID,916.593,VALID,0.0,VALID,99.245,VALID,-0.012,VALID,19.032,VALID,73.0,VALID,0.0,
2018-10-05, 03:41:06,VALID,916.614,VALID,0.0,VALID,99.249,VALID,-0.009,VALID,19.11,VALID,72.0,VALID,0.0,
2018-10-05, 03:42:06,VALID,916.628,VALID,0.0,VALID,99.235,VALID,-0.015,VALID,19.116,VALID,72.0,VALID,0.0,
2018-10-05, 03:43:06,VALID,916.619,VALID,0.0,VALID,99.243,VALID,-0.01,VALID,19.132,VALID,72.0,VALID,0.0,